,,,PA_Meas_PMT16A,,PR_Meas_QMR101_102,,RH_Meas_QMH101,,SR_Meas_QMS101,,TA_Meas_QMH101,,GenWind,,GenWind,
date,time,status,PA,status,PR,status,RH,status,SR,status,TA,status,DirAvg,status,SpdAvg,
2008-05-07, 00:00:04,VALID,1001.46,VALID,0,VALID,78.2418,VALID,0,VALID,27.7004,VALID,238,VALID,0.869141,
2008-05-07, 00:01:04,VALID,1001.48,VALID,0,VALID,78.1579,VALID,0,VALID,27.7199,VALID,299,VALID,0.490625,
2008-05-07, 00:02:04,VALID,1001.51,VALID,0,VALID,78.4936,VALID,0,VALID,27.7178,VALID,239,VALID,1.14531,
2008-05-07, 00:03:04,VALID,1001.48,VALID,0,VALID,78.6538,VALID,0,VALID,27.7372,VALID,302,VALID,0.629297,
2008-05-07, 00:04:04,VALID,1001.5,VALID,0,VALID,79.3327,VALID,0,VALID,27.7178,VALID,185,VALID,0.374219,
2008-05-07, 00:05:04,VALID,1001.53,VALID,0,VALID,79.3175,VALID,0,VALID,27.7199,VALID,339,VALID,0.641406,
2008-05-07, 00:06:04,VALID,1001.52,VALID,0,VALID,79.5997,VALID,0,VALID,27.6788,VALID,271,VALID,1.48203,
2008-05-07, 00:07:04,VALID,1001.53,VALID,0,VALID,80.027,VALID,0,VALID,27.6593,VALID,251,VALID,0.80625,
2008-05-07, 00:08:04,VALID,1001.51,VALID,0,VALID,80.21,VALID,0,VALID,27.7004,VALID,307,VALID,0.916797,
2008-05-07, 00:09:04,VALID,1001.53,VALID,0,VALID,80.889,VALID,0,VALID,27.6593,VALID,269,VALID,0.887891,
2008-05-07, 00:10:04,VALID,1001.51,VALID,0,VALID,81.0721,VALID,0,VALID,27.6593,VALID,253,VALID,1.46172,
2008-05-07, 00:11:04,VALID,1001.5,VALID,0,VALID,81.2247,VALID,0,VALID,27.7004,VALID,252,VALID,0.657812,
2008-05-07, 00:12:04,VALID,1001.49,VALID,0,VALID,81.2857,VALID,0,VALID,27.7004,VALID,83,VALID,0.499219,
2008-05-07, 00:13:04,VALID,1001.49,VALID,0,VALID,81.7892,VALID,0,VALID,27.7004,VALID,277,VALID,1.84961,
2008-05-07, 00:14:04,VALID,1001.47,VALID,0,VALID,82.0105,VALID,0,VALID,27.7004,VALID,332,VALID,0.594141,
2008-05-07, 00:15:04,VALID,1001.45,VALID,0,VALID,81.9037,VALID,0,VALID,27.6983,VALID,240,VALID,1.41133,
2008-05-07, 00:16:04,VALID,1001.46,VALID,0,VALID,81.9723,VALID,0,VALID,27.7394,VALID,262,VALID,1.34375,
2008-05-07, 00:17:04,VALID,1001.38,VALID,0,VALID,81.423,VALID,0,VALID,27.7394,VALID,212,VALID,1.00156,
2008-05-07, 00:18:04,VALID,1001.42,VALID,0,VALID,81.5298,VALID,0,VALID,27.7588,VALID,216,VALID,1.49844,
2008-05-07, 00:19:04,VALID,1001.37,VALID,0,VALID,81.095,VALID,0,VALID,27.7588,VALID,276,VALID,1.66133,
2008-05-07, 00:20:04,VALID,1001.36,VALID,0,VALID,81.1255,VALID,0,VALID,27.7783,VALID,260,VALID,1.80703,
2008-05-07, 00:21:04,VALID,1001.36,VALID,0,VALID,81.0874,VALID,0,VALID,27.7783,VALID,229,VALID,1.22539,
2008-05-07, 00:22:04,VALID,1001.37,VALID,0,VALID,81.0797,VALID,0,VALID,27.7567,VALID,291,VALID,0.560156,
2008-05-07, 00:23:04,VALID,1001.39,VALID,0,VALID,81.0721,VALID,0,VALID,27.7978,VALID,257,VALID,0.997266,
2008-05-07, 00:24:04,VALID,1001.38,VALID,0,VALID,80.9501,VALID,0,VALID,27.7978,VALID,237,VALID,0.792188,
2008-05-07, 00:25:04,VALID,1001.35,VALID,0,VALID,80.8814,VALID,0,VALID,27.7978,VALID,273,VALID,1.56523,
2008-05-07, 00:26:04,VALID,1001.35,VALID,0,VALID,80.9729,VALID,0,VALID,27.7978,VALID,291,VALID,0.988672,
2008-05-07, 00:27:04,VALID,1001.28,VALID,0,VALID,81.0797,VALID,0,VALID,27.7783,VALID,264,VALID,1.09687,
2008-05-07, 00:28:04,VALID,1001.28,VALID,0,VALID,81.1789,VALID,0,VALID,27.7783,VALID,246,VALID,1.16953,
2008-05-07, 00:29:04,VALID,1001.28,VALID,0,VALID,81.3315,VALID,0,VALID,27.7783,VALID,250,VALID,0.773438,
2008-05-07, 00:30:04,VALID,1001.26,VALID,0,VALID,81.6214,VALID,0,VALID,27.7783,VALID,253,VALID,0.779297,
2008-05-07, 00:31:04,VALID,1001.3,VALID,0,VALID,81.7663,VALID,0,VALID,27.7372,VALID,242,VALID,1.53594,
2008-05-07, 00:32:04,VALID,1001.2,VALID,0,VALID,81.8579,VALID,0,VALID,27.7372,VALID,299,VALID,1.43945,
2008-05-07, 00:33:04,VALID,1001.27,VALID,0,VALID,81.9189,VALID,0,VALID,27.7567,VALID,272,VALID,1.25898,
2008-05-07, 00:34:04,VALID,1001.25,VALID,0,VALID,82.2851,VALID,0,VALID,27.7978,VALID,288,VALID,1.3957,
2008-05-07, 00:35:04,VALID,1001.21,VALID,0,VALID,82.3385,VALID,0,VALID,27.7762,VALID,278,VALID,1.02813,
2008-05-07, 00:36:04,VALID,1001.19,VALID,0,VALID,82.4682,VALID,0,VALID,27.7783,VALID,233,VALID,1.38672,
2008-05-07, 00:37:04,VALID,1001.22,VALID,0,VALID,82.4987,VALID,0,VALID,27.7372,VALID,239,VALID,1.27734,
2008-05-07, 00:38:04,VALID,1001.17,VALID,0,VALID,82.6131,VALID,0,VALID,27.7372,VALID,244,VALID,1.4582,
2008-05-07, 00:39:04,VALID,1001.17,VALID,0,VALID,82.5826,VALID,0,VALID,27.7588,VALID,242,VALID,1.09766,
2008-05-07, 00:40:04,VALID,1001.13,VALID,0,VALID,82.041,VALID,0,VALID,27.7783,VALID,275,VALID,2.48906,
2008-05-07, 00:41:04,VALID,1001.16,VALID,0,VALID,82.0944,VALID,0,VALID,27.8173,VALID,228,VALID,0.912109,
2008-05-07, 00:42:04,VALID,1001.11,VALID,0,VALID,81.9418,VALID,0,VALID,27.7978,VALID,307,VALID,0.96875,
2008-05-07, 00:43:04,VALID,1001.1,VALID,0,VALID,81.9952,VALID,0,VALID,27.7978,VALID,274,VALID,1.36289,
2008-05-07, 00:44:04,VALID,1001.15,VALID,0,VALID,82.1859,VALID,0,VALID,27.7978,VALID,220,VALID,0.772266,
2008-05-07, 00:45:04,VALID,1001.15,VALID,0,VALID,82.4072,VALID,0,VALID,27.8173,VALID,257,VALID,1.74727,
2008-05-07, 00:46:04,VALID,1001.09,VALID,0,VALID,82.2088,VALID,0,VALID,27.8368,VALID,292,VALID,1.99297,
2008-05-07, 00:47:04,VALID,1001.1,VALID,0,VALID,82.2012,VALID,0,VALID,27.8563,VALID,314,VALID,0.684375,
2008-05-07, 00:48:04,VALID,1001.14,VALID,0,VALID,82.2012,VALID,0,VALID,27.8368,VALID,264,VALID,1.05273,
2008-05-07, 00:49:04,VALID,1001.08,VALID,0,VALID,82.1707,VALID,0,VALID,27.8563,VALID,293,VALID,1.56875,
2008-05-07, 00:50:04,VALID,1001.13,VALID,0,VALID,81.7663,VALID,0,VALID,27.8563,VALID,245,VALID,1.05703,
2008-05-07, 00:51:04,VALID,1001.16,VALID,0,VALID,81.6672,VALID,0,VALID,27.8737,VALID,268,VALID,1.70781,
2008-05-07, 00:52:04,VALID,1001.14,VALID,0,VALID,81.1865,VALID,0,VALID,27.8737,VALID,238,VALID,1.25703,
2008-05-07, 00:53:04,VALID,1001.14,VALID,0,VALID,81.2628,VALID,0,VALID,27.8932,VALID,204,VALID,0.945703,
2008-05-07, 00:54:04,VALID,1001.11,VALID,0,VALID,80.6525,VALID,0,VALID,27.8932,VALID,247,VALID,1.30117,
2008-05-07, 00:55:04,VALID,1001.12,VALID,0,VALID,80.1795,VALID,0.100563,VALID,27.8932,VALID,275,VALID,1.16367,
2008-05-07, 00:56:04,VALID,1001.06,VALID,0,VALID,79.554,VALID,0.100563,VALID,27.8716,VALID,281,VALID,2.09531,
2008-05-07, 00:57:04,VALID,1001.1,VALID,0,VALID,79.554,VALID,0,VALID,27.9127,VALID,263,VALID,0.984375,
2008-05-07, 00:58:04,VALID,1001.08,VALID,0,VALID,79.8362,VALID,0.100563,VALID,27.8911,VALID,239,VALID,0.614844,
2008-05-07, 00:59:04,VALID,1001.07,VALID,0,VALID,79.8591,VALID,0,VALID,27.8716,VALID,287,VALID,1.59766,
2008-05-07, 01:00:04,VALID,1001.06,VALID,0,VALID,80.0575,VALID,0.100563,VALID,27.8911,VALID,256,VALID,0.739062,
2008-05-07, 01:01:04,VALID,1001.07,VALID,0,VALID,79.6531,VALID,0.100563,VALID,27.8911,VALID,281,VALID,1.58984,
2008-05-07, 01:02:04,VALID,1001.03,VALID,0,VALID,79.6837,VALID,0.100563,VALID,27.8932,VALID,279,VALID,0.790234,
2008-05-07, 01:03:04,VALID,1001.03,VALID,0,VALID,79.3327,VALID,0,VALID,27.8737,VALID,270,VALID,1.18086,
2008-05-07, 01:04:04,VALID,1000.97,VALID,0,VALID,78.608,VALID,0,VALID,27.8737,VALID,278,VALID,2.34414,
2008-05-07, 01:05:04,VALID,1000.87,VALID,0,VALID,78.341,VALID,0.100563,VALID,27.9127,VALID,266,VALID,1.74219,
2008-05-07, 01:06:04,VALID,1000.95,VALID,0,VALID,78.5164,VALID,0,VALID,27.8932,VALID,279,VALID,2.22227,
2008-05-07, 01:07:04,VALID,1000.94,VALID,0,VALID,78.6995,VALID,0,VALID,27.9148,VALID,232,VALID,1.26914,
2008-05-07, 01:08:04,VALID,1000.92,VALID,0,VALID,78.5241,VALID,0,VALID,27.8953,VALID,266,VALID,1.13711,
2008-05-07, 01:09:04,VALID,1000.94,VALID,0,VALID,78.8597,VALID,0,VALID,27.8737,VALID,262,VALID,2.28594,
2008-05-07, 01:10:04,VALID,1000.92,VALID,0,VALID,79.0657,VALID,0,VALID,27.8758,VALID,274,VALID,1.0875,
2008-05-07, 01:11:04,VALID,1000.93,VALID,0,VALID,78.8292,VALID,0,VALID,27.8974,VALID,311,VALID,1.46016,
2008-05-07, 01:12:04,VALID,1000.93,VALID,0,VALID,78.3486,VALID,0,VALID,27.8542,VALID,289,VALID,1.81562,
2008-05-07, 01:13:04,VALID,1000.93,VALID,0,VALID,78.4325,VALID,0,VALID,27.8542,VALID,31,VALID,1.14063,
2008-05-07, 01:14:04,VALID,1000.9,VALID,0,VALID,78.5927,VALID,0,VALID,27.8758,VALID,297,VALID,1.57187,
2008-05-07, 01:15:04,VALID,1000.91,VALID,0,VALID,78.0053,VALID,0,VALID,27.8563,VALID,282,VALID,1.64023,
2008-05-07, 01:16:04,VALID,1000.9,VALID,0,VALID,78.2723,VALID,0,VALID,27.8347,VALID,269,VALID,1.74531,
2008-05-07, 01:17:04,VALID,1000.88,VALID,0,VALID,78.4554,VALID,0,VALID,27.8758,VALID,256,VALID,1.1957,
2008-05-07, 01:18:04,VALID,1000.89,VALID,0,VALID,78.7148,VALID,0,VALID,27.8563,VALID,255,VALID,1.67969,
2008-05-07, 01:19:04,VALID,1000.87,VALID,0,VALID,78.9742,VALID,0,VALID,27.8368,VALID,263,VALID,1.1043,
2008-05-07, 01:20:04,VALID,1000.87,VALID,0,VALID,79.1267,VALID,0,VALID,27.8563,VALID,253,VALID,1.47305,
2008-05-07, 01:21:04,VALID,1000.82,VALID,0,VALID,79.3938,VALID,0,VALID,27.8542,VALID,259,VALID,0.600781,
2008-05-07, 01:22:04,VALID,1000.88,VALID,0,VALID,79.7447,VALID,0,VALID,27.8347,VALID,259,VALID,0.855859,
2008-05-07, 01:23:04,VALID,1000.82,VALID,0,VALID,79.7523,VALID,0,VALID,27.8152,VALID,266,VALID,1.86328,
2008-05-07, 01:24:04,VALID,1000.83,VALID,0,VALID,79.821,VALID,0,VALID,27.8347,VALID,249,VALID,0.993359,
2008-05-07, 01:25:04,VALID,1000.76,VALID,0,VALID,79.4319,VALID,0,VALID,27.8347,VALID,261,VALID,1.40859,
2008-05-07, 01:26:04,VALID,1000.84,VALID,0,VALID,79.5006,VALID,0,VALID,27.8347,VALID,267,VALID,1.83047,
2008-05-07, 01:27:04,VALID,1000.77,VALID,0,VALID,79.5769,VALID,0,VALID,27.8563,VALID,248,VALID,0.735156,
2008-05-07, 01:28:04,VALID,1000.74,VALID,0,VALID,78.9665,VALID,0,VALID,27.8737,VALID,275,VALID,1.17813,
2008-05-07, 01:29:04,VALID,1000.8,VALID,0,VALID,79.0962,VALID,0,VALID,27.8932,VALID,300,VALID,0.757031,
2008-05-07, 01:30:04,VALID,1000.79,VALID,0,VALID,78.9589,VALID,0,VALID,27.8953,VALID,271,VALID,1.66875,
2008-05-07, 01:31:04,VALID,1000.84,VALID,0,VALID,79.081,VALID,0,VALID,27.8737,VALID,278,VALID,1.29922,
2008-05-07, 01:32:04,VALID,1000.78,VALID,0,VALID,78.0511,VALID,0,VALID,27.8737,VALID,273,VALID,3.65313,
2008-05-07, 01:33:04,VALID,1000.82,VALID,0,VALID,78.2647,VALID,0,VALID,27.8932,VALID,262,VALID,1.43047,
2008-05-07, 01:34:04,VALID,1000.8,VALID,0,VALID,78.1045,VALID,0,VALID,27.9148,VALID,282,VALID,1.29922,
2008-05-07, 01:35:04,VALID,1000.79,VALID,0,VALID,78.2647,VALID,0,VALID,27.8932,VALID,243,VALID,1.30547,
2008-05-07, 01:36:04,VALID,1000.76,VALID,0,VALID,78.4707,VALID,0,VALID,27.8737,VALID,250,VALID,1.51523,
2008-05-07, 01:37:04,VALID,1000.74,VALID,0,VALID,78.5088,VALID,0,VALID,27.8737,VALID,300,VALID,2.84063,
2008-05-07, 01:38:04,VALID,1000.72,VALID,0,VALID,77.868,VALID,0,VALID,27.8521,VALID,295,VALID,2.06328,
2008-05-07, 01:39:04,VALID,1000.69,VALID,0,VALID,77.807,VALID,0,VALID,27.8542,VALID,281,VALID,1.16016,
2008-05-07, 01:40:04,VALID,1000.68,VALID,0,VALID,78.074,VALID,0,VALID,27.8542,VALID,283,VALID,0.751953,
2008-05-07, 01:41:04,VALID,1000.63,VALID,0,VALID,78.135,VALID,0,VALID,27.8347,VALID,305,VALID,0.746484,
2008-05-07, 01:42:04,VALID,1000.62,VALID,0,VALID,78.2113,VALID,0,VALID,27.8131,VALID,271,VALID,1.175,
2008-05-07, 01:43:04,VALID,1000.64,VALID,0,VALID,78.0968,VALID,0,VALID,27.8347,VALID,308,VALID,2.13359,
2008-05-07, 01:44:04,VALID,1000.63,VALID,0,VALID,78.135,VALID,0,VALID,27.8347,VALID,255,VALID,1.84492,
2008-05-07, 01:45:04,VALID,1000.64,VALID,0,VALID,78.2113,VALID,0,VALID,27.8542,VALID,281,VALID,1.17148,
2008-05-07, 01:46:04,VALID,1000.57,VALID,0,VALID,78.341,VALID,0,VALID,27.8347,VALID,235,VALID,0.9125,
2008-05-07, 01:47:04,VALID,1000.54,VALID,0,VALID,78.4325,VALID,0,VALID,27.8152,VALID,292,VALID,1.29766,
2008-05-07, 01:48:04,VALID,1000.53,VALID,0,VALID,78.5088,VALID,0,VALID,27.8368,VALID,130,VALID,1.13867,
2008-05-07, 01:49:04,VALID,1000.48,VALID,0,VALID,78.402,VALID,0,VALID,27.8152,VALID,256,VALID,2.24258,
2008-05-07, 01:50:04,VALID,1000.53,VALID,0,VALID,78.6156,VALID,0,VALID,27.8152,VALID,279,VALID,1.37969,
2008-05-07, 01:51:04,VALID,1000.51,VALID,0,VALID,78.6385,VALID,0,VALID,27.8152,VALID,292,VALID,0.907031,
2008-05-07, 01:52:04,VALID,1000.5,VALID,0,VALID,79.0047,VALID,0,VALID,27.7741,VALID,290,VALID,0.713672,
2008-05-07, 01:53:04,VALID,1000.49,VALID,0,VALID,78.9742,VALID,0,VALID,27.7567,VALID,326,VALID,0.980469,
2008-05-07, 01:54:04,VALID,1000.46,VALID,0,VALID,79.142,VALID,0,VALID,27.7372,VALID,249,VALID,0.760156,
2008-05-07, 01:55:04,VALID,1000.47,VALID,0,VALID,78.7377,VALID,0,VALID,27.7199,VALID,266,VALID,1.74102,
2008-05-07, 01:56:04,VALID,1000.41,VALID,0,VALID,78.1426,VALID,0,VALID,27.6983,VALID,276,VALID,1.88867,
2008-05-07, 01:57:04,VALID,1000.37,VALID,0,VALID,78.0587,VALID,0,VALID,27.6983,VALID,274,VALID,2.21914,
2008-05-07, 01:58:04,VALID,1000.38,VALID,0,VALID,78.2189,VALID,0,VALID,27.7372,VALID,269,VALID,1.54961,
2008-05-07, 01:59:04,VALID,1000.35,VALID,0,VALID,78.0129,VALID,0,VALID,27.6962,VALID,286,VALID,2.11523,
2008-05-07, 02:00:04,VALID,1000.31,VALID,0,VALID,77.7993,VALID,0,VALID,27.6983,VALID,342,VALID,1.57422,
2008-05-07, 02:01:04,VALID,1000.31,VALID,0,VALID,78.1426,VALID,0,VALID,27.7199,VALID,232,VALID,0.630078,
2008-05-07, 02:02:04,VALID,1000.26,VALID,0,VALID,77.4942,VALID,0,VALID,27.7004,VALID,290,VALID,2.19805,
2008-05-07, 02:03:04,VALID,1000.25,VALID,0,VALID,77.5247,VALID,0,VALID,27.6983,VALID,253,VALID,1.21133,
2008-05-07, 02:04:04,VALID,1000.21,VALID,0,VALID,77.3874,VALID,0,VALID,27.6788,VALID,297,VALID,1.76836,
2008-05-07, 02:05:04,VALID,1000.24,VALID,0,VALID,77.8222,VALID,0,VALID,27.6788,VALID,294,VALID,0.915625,
2008-05-07, 02:06:04,VALID,1000.27,VALID,0,VALID,78.1121,VALID,0,VALID,27.6593,VALID,244,VALID,1.56094,
2008-05-07, 02:07:04,VALID,1000.25,VALID,0,VALID,78.0663,VALID,0,VALID,27.6203,VALID,291,VALID,1.51523,
2008-05-07, 02:08:04,VALID,1000.26,VALID,0,VALID,78.1579,VALID,0,VALID,27.6398,VALID,264,VALID,1.54805,
2008-05-07, 02:09:04,VALID,1000.26,VALID,0,VALID,78.2723,VALID,0,VALID,27.6398,VALID,332,VALID,1.09492,
2008-05-07, 02:10:04,VALID,1000.23,VALID,0,VALID,78.3715,VALID,0,VALID,27.6008,VALID,281,VALID,1.41875,
2008-05-07, 02:11:04,VALID,1000.23,VALID,0,VALID,78.6004,VALID,0.100563,VALID,27.6008,VALID,243,VALID,1.5168,
2008-05-07, 02:12:04,VALID,1000.23,VALID,0,VALID,78.5393,VALID,0,VALID,27.5598,VALID,306,VALID,1.75859,
2008-05-07, 02:13:04,VALID,1000.23,VALID,0,VALID,79.081,VALID,0,VALID,27.5618,VALID,249,VALID,0.91875,
2008-05-07, 02:14:04,VALID,1000.23,VALID,0,VALID,78.7529,VALID,0,VALID,27.5229,VALID,294,VALID,1.79766,
2008-05-07, 02:15:04,VALID,1000.23,VALID,0,VALID,78.608,VALID,0,VALID,27.5034,VALID,313,VALID,1.53242,
2008-05-07, 02:16:04,VALID,1000.22,VALID,0,VALID,78.3105,VALID,0,VALID,27.486,VALID,240,VALID,1.15781,
2008-05-07, 02:17:04,VALID,1000.21,VALID,0,VALID,77.8146,VALID,0,VALID,27.4644,VALID,227,VALID,1.01133,
2008-05-07, 02:18:04,VALID,1000.25,VALID,0,VALID,77.3721,VALID,0,VALID,27.4644,VALID,265,VALID,2.58516,
2008-05-07, 02:19:04,VALID,1000.21,VALID,0,VALID,77.3111,VALID,0,VALID,27.4839,VALID,270,VALID,1.28828,
2008-05-07, 02:20:04,VALID,1000.19,VALID,0,VALID,77.2424,VALID,0,VALID,27.5229,VALID,261,VALID,1.55977,
2008-05-07, 02:21:04,VALID,1000.2,VALID,0,VALID,76.9373,VALID,0,VALID,27.525,VALID,257,VALID,1.86836,
2008-05-07, 02:22:04,VALID,1000.2,VALID,0,VALID,77.2043,VALID,0,VALID,27.5424,VALID,254,VALID,0.774219,
2008-05-07, 02:23:04,VALID,1000.25,VALID,0,VALID,77.5171,VALID,0,VALID,27.5444,VALID,266,VALID,0.918359,
2008-05-07, 02:24:04,VALID,1000.28,VALID,0,VALID,77.7078,VALID,0,VALID,27.525,VALID,261,VALID,0.972266,
2008-05-07, 02:25:04,VALID,1000.27,VALID,0,VALID,77.9138,VALID,0,VALID,27.5055,VALID,279,VALID,0.852734,
2008-05-07, 02:26:04,VALID,1000.23,VALID,0,VALID,78.0282,VALID,0,VALID,27.5055,VALID,288,VALID,2.69102,
2008-05-07, 02:27:04,VALID,1000.24,VALID,0,VALID,78.1045,VALID,0,VALID,27.525,VALID,236,VALID,1.41992,
2008-05-07, 02:28:04,VALID,1000.24,VALID,0,VALID,78.4096,VALID,0,VALID,27.525,VALID,275,VALID,1.11641,
2008-05-07, 02:29:04,VALID,1000.21,VALID,0,VALID,78.4707,VALID,0,VALID,27.4839,VALID,290,VALID,2.23711,
2008-05-07, 02:30:04,VALID,1000.2,VALID,0,VALID,78.669,VALID,0,VALID,27.4644,VALID,248,VALID,0.897656,
2008-05-07, 02:31:04,VALID,1000.22,VALID,0,VALID,78.6995,VALID,0,VALID,27.4644,VALID,255,VALID,1.09297,
2008-05-07, 02:32:04,VALID,1000.23,VALID,0,VALID,78.7453,VALID,0,VALID,27.4839,VALID,294,VALID,1.83789,
2008-05-07, 02:33:04,VALID,1000.19,VALID,0,VALID,78.6385,VALID,0,VALID,27.525,VALID,299,VALID,1.60273,
2008-05-07, 02:34:04,VALID,1000.22,VALID,0,VALID,78.5622,VALID,0,VALID,27.525,VALID,253,VALID,0.982031,
2008-05-07, 02:35:04,VALID,1000.21,VALID,0,VALID,78.3257,VALID,0,VALID,27.525,VALID,287,VALID,2.14063,
2008-05-07, 02:36:04,VALID,1000.23,VALID,0,VALID,78.1197,VALID,0.100563,VALID,27.5618,VALID,278,VALID,1.20039,
2008-05-07, 02:37:04,VALID,1000.25,VALID,0,VALID,78.3486,VALID,0,VALID,27.5403,VALID,261,VALID,0.978906,
2008-05-07, 02:38:04,VALID,1000.21,VALID,0,VALID,78.2113,VALID,0.100563,VALID,27.5403,VALID,312,VALID,1.08594,
2008-05-07, 02:39:04,VALID,1000.24,VALID,0,VALID,77.9595,VALID,0.100563,VALID,27.5598,VALID,278,VALID,1.18164,
2008-05-07, 02:40:04,VALID,1000.26,VALID,0,VALID,77.9672,VALID,0.100563,VALID,27.5598,VALID,267,VALID,0.629687,
2008-05-07, 02:41:04,VALID,1000.25,VALID,0,VALID,78.1274,VALID,0.100563,VALID,27.5598,VALID,253,VALID,0.770703,
2008-05-07, 02:42:04,VALID,1000.27,VALID,0,VALID,78.196,VALID,0.100563,VALID,27.5403,VALID,271,VALID,0.861719,
2008-05-07, 02:43:04,VALID,1000.28,VALID,0,VALID,78.3333,VALID,0.100563,VALID,27.5208,VALID,288,VALID,1.0332,
2008-05-07, 02:44:04,VALID,1000.29,VALID,0,VALID,78.4554,VALID,0.100563,VALID,27.5013,VALID,308,VALID,1.17539,
2008-05-07, 02:45:04,VALID,1000.27,VALID,0,VALID,78.341,VALID,0.100563,VALID,27.4818,VALID,260,VALID,1.62812,
2008-05-07, 02:46:04,VALID,1000.28,VALID,0,VALID,78.4249,VALID,0.100563,VALID,27.4839,VALID,275,VALID,1.52539,
2008-05-07, 02:47:04,VALID,1000.26,VALID,0,VALID,78.3028,VALID,0,VALID,27.4623,VALID,222,VALID,0.407422,
2008-05-07, 02:48:04,VALID,1000.29,VALID,0,VALID,77.7917,VALID,0.100563,VALID,27.5034,VALID,268,VALID,1.74219,
2008-05-07, 02:49:04,VALID,1000.28,VALID,0,VALID,77.6315,VALID,0.100563,VALID,27.5424,VALID,300,VALID,1.70977,
2008-05-07, 02:50:04,VALID,1000.27,VALID,0,VALID,77.7688,VALID,0.100563,VALID,27.5403,VALID,263,VALID,1.74648,
2008-05-07, 02:51:04,VALID,1000.28,VALID,0,VALID,77.807,VALID,0,VALID,27.5834,VALID,275,VALID,0.7375,
2008-05-07, 02:52:04,VALID,1000.29,VALID,0,VALID,77.7612,VALID,0,VALID,27.5618,VALID,270,VALID,1.17148,
2008-05-07, 02:53:04,VALID,1000.22,VALID,0,VALID,77.3492,VALID,0,VALID,27.5813,VALID,307,VALID,1.62305,
2008-05-07, 02:54:04,VALID,1000.26,VALID,0,VALID,77.7078,VALID,0,VALID,27.5813,VALID,236,VALID,0.536328,
2008-05-07, 02:55:04,VALID,1000.27,VALID,0,VALID,77.4331,VALID,0,VALID,27.6419,VALID,280,VALID,1.33984,
2008-05-07, 02:56:04,VALID,1000.27,VALID,0,VALID,77.3263,VALID,0,VALID,27.6224,VALID,262,VALID,2.1125,
2008-05-07, 02:57:04,VALID,1000.21,VALID,0,VALID,77.4255,VALID,0,VALID,27.6008,VALID,236,VALID,1.04258,
2008-05-07, 02:58:04,VALID,1000.2,VALID,0,VALID,77.4179,VALID,0,VALID,27.6008,VALID,286,VALID,1.93438,
2008-05-07, 02:59:04,VALID,1000.16,VALID,0,VALID,77.334,VALID,0,VALID,27.6224,VALID,304,VALID,2.42227,
2008-05-07, 03:00:04,VALID,1000.2,VALID,0,VALID,77.5628,VALID,0,VALID,27.6008,VALID,263,VALID,0.959375,
2008-05-07, 03:01:04,VALID,1000.15,VALID,0,VALID,77.7154,VALID,0,VALID,27.6029,VALID,282,VALID,1.54023,
2008-05-07, 03:02:04,VALID,1000.16,VALID,0,VALID,77.5171,VALID,0,VALID,27.5618,VALID,281,VALID,2.4625,
2008-05-07, 03:03:04,VALID,1000.18,VALID,0,VALID,77.5933,VALID,0,VALID,27.5834,VALID,307,VALID,1.21563,
2008-05-07, 03:04:04,VALID,1000.14,VALID,0,VALID,77.8909,VALID,0,VALID,27.5424,VALID,280,VALID,0.991797,
2008-05-07, 03:05:04,VALID,1000.09,VALID,0,VALID,78.0434,VALID,0,VALID,27.5444,VALID,302,VALID,3.42305,
2008-05-07, 03:06:04,VALID,1000.12,VALID,0,VALID,78.074,VALID,0.100563,VALID,27.5424,VALID,292,VALID,1.69062,
2008-05-07, 03:07:04,VALID,1000.08,VALID,0,VALID,78.2113,VALID,0.100563,VALID,27.5229,VALID,255,VALID,1.30234,
2008-05-07, 03:08:04,VALID,1000.06,VALID,0,VALID,78.2189,VALID,0.100563,VALID,27.4818,VALID,277,VALID,1.58242,
2008-05-07, 03:09:04,VALID,1000.03,VALID,0,VALID,78.2571,VALID,0.100563,VALID,27.4839,VALID,298,VALID,1.02461,
2008-05-07, 03:10:04,VALID,1000.02,VALID,0,VALID,78.2342,VALID,0.100563,VALID,27.4428,VALID,291,VALID,1.65898,
2008-05-07, 03:11:04,VALID,1000.01,VALID,0,VALID,78.2876,VALID,0,VALID,27.4644,VALID,282,VALID,2.82617,
2008-05-07, 03:12:04,VALID,1000.05,VALID,0,VALID,78.5012,VALID,0,VALID,27.4839,VALID,281,VALID,0.883594,
2008-05-07, 03:13:04,VALID,1000.03,VALID,0,VALID,78.7148,VALID,0,VALID,27.4623,VALID,273,VALID,1.03164,
2008-05-07, 03:14:04,VALID,1000.03,VALID,0,VALID,78.5698,VALID,0,VALID,27.4644,VALID,288,VALID,2.0957,
2008-05-07, 03:15:04,VALID,1000.04,VALID,0,VALID,78.6232,VALID,0,VALID,27.4644,VALID,271,VALID,1.79531,
2008-05-07, 03:16:04,VALID,1000.1,VALID,0,VALID,78.9589,VALID,0,VALID,27.4665,VALID,265,VALID,0.957031,
2008-05-07, 03:17:04,VALID,1000.08,VALID,0,VALID,78.6766,VALID,0.100563,VALID,27.4039,VALID,255,VALID,1.7043,
2008-05-07, 03:18:04,VALID,1000.09,VALID,0,VALID,78.73,VALID,0.100563,VALID,27.4233,VALID,226,VALID,1.05664,
2008-05-07, 03:19:04,VALID,1000.11,VALID,0,VALID,78.8903,VALID,0.100563,VALID,27.4254,VALID,272,VALID,1.31875,
2008-05-07, 03:20:04,VALID,1000.14,VALID,0,VALID,79.0962,VALID,0,VALID,27.4449,VALID,270,VALID,1.78516,
2008-05-07, 03:21:04,VALID,1000.16,VALID,0,VALID,79.0657,VALID,0,VALID,27.4665,VALID,278,VALID,1.24922,
2008-05-07, 03:22:04,VALID,1000.14,VALID,0,VALID,79.1573,VALID,0,VALID,27.486,VALID,290,VALID,1.10312,
2008-05-07, 03:23:04,VALID,1000.14,VALID,0,VALID,79.2259,VALID,0,VALID,27.486,VALID,280,VALID,2.05078,
2008-05-07, 03:24:04,VALID,1000.12,VALID,0,VALID,79.2107,VALID,0,VALID,27.525,VALID,213,VALID,1.20156,
2008-05-07, 03:25:04,VALID,1000.19,VALID,0,VALID,78.9131,VALID,0,VALID,27.5444,VALID,242,VALID,1.61016,
2008-05-07, 03:26:04,VALID,1000.17,VALID,0,VALID,78.9513,VALID,0,VALID,27.5229,VALID,282,VALID,1.68281,
2008-05-07, 03:27:04,VALID,1000.16,VALID,0,VALID,78.9284,VALID,0,VALID,27.5424,VALID,301,VALID,1.4375,
2008-05-07, 03:28:04,VALID,1000.18,VALID,0,VALID,78.7987,VALID,0,VALID,27.5208,VALID,299,VALID,1.56289,
2008-05-07, 03:29:04,VALID,1000.16,VALID,0,VALID,78.6156,VALID,0,VALID,27.5424,VALID,271,VALID,1.73242,
2008-05-07, 03:30:04,VALID,1000.25,VALID,0,VALID,78.6614,VALID,0,VALID,27.5639,VALID,289,VALID,1.77617,
2008-05-07, 03:31:04,VALID,1000.23,VALID,0,VALID,78.2342,VALID,0,VALID,27.5618,VALID,274,VALID,1.81445,
2008-05-07, 03:32:04,VALID,1000.25,VALID,0,VALID,78.2571,VALID,0,VALID,27.5618,VALID,256,VALID,1.3582,
2008-05-07, 03:33:04,VALID,1000.27,VALID,0,VALID,78.2571,VALID,0,VALID,27.5229,VALID,275,VALID,1.8832,
2008-05-07, 03:34:04,VALID,1000.27,VALID,0,VALID,78.463,VALID,0,VALID,27.5618,VALID,208,VALID,0.989844,
2008-05-07, 03:35:04,VALID,1000.25,VALID,0,VALID,78.2876,VALID,0,VALID,27.5639,VALID,263,VALID,1.89922,
2008-05-07, 03:36:04,VALID,1000.26,VALID,0,VALID,78.5241,VALID,0,VALID,27.5229,VALID,278,VALID,1.38203,
2008-05-07, 03:37:04,VALID,1000.3,VALID,0,VALID,78.6309,VALID,0,VALID,27.5229,VALID,289,VALID,1.10234,
2008-05-07, 03:38:04,VALID,1000.3,VALID,0,VALID,78.6309,VALID,0,VALID,27.5055,VALID,251,VALID,0.617969,
2008-05-07, 03:39:04,VALID,1000.31,VALID,0,VALID,78.7148,VALID,0,VALID,27.5034,VALID,224,VALID,0.964453,
2008-05-07, 03:40:04,VALID,1000.31,VALID,0,VALID,78.9513,VALID,0,VALID,27.4623,VALID,294,VALID,0.891797,
2008-05-07, 03:41:04,VALID,1000.34,VALID,0,VALID,78.9665,VALID,0,VALID,27.5055,VALID,285,VALID,2.35234,
2008-05-07, 03:42:04,VALID,1000.31,VALID,0,VALID,79.1267,VALID,0,VALID,27.4839,VALID,249,VALID,1.3125,
2008-05-07, 03:43:04,VALID,1000.37,VALID,0,VALID,78.9437,VALID,0,VALID,27.5034,VALID,236,VALID,1.37539,
2008-05-07, 03:44:04,VALID,1000.41,VALID,0,VALID,78.8216,VALID,0,VALID,27.525,VALID,276,VALID,1.06328,